This demonstration page uses our WeatherBlox Daily Observations layout. Learn more.

Left ArrowRight Arrow

34.16533, -84.80231

Hourly Observations for October 13, 2019

Temp ( °F °C ) Dew Point ( °F °C ) Humidity (%) Winds ( mph kmh ) Pressure ( in mb ) Visibility ( mi km ) Precip ( " mm )
12:53 am 00:53 Cloudy 63 17.2 51 10.6 65 65 Calm 30.02 1017 10 16 0.00 0.00
1:05 am 01:05 Cloudy 63 17.2 51 10.6 65 65 Calm 30.03 1017 10 16 0.00 0.00
1:32 am 01:32 Cloudy 63 17.2 52 11.1 68 68 Calm 30.03 1017 10 16 0.00 0.00
1:53 am 01:53 Cloudy 63 17.2 52 11.1 68 68 Calm 30.00 1016 10 16 0.00 0.00
2:53 am 02:53 Cloudy 63 17.2 51 10.6 65 65 Calm 29.99 1016 10 16 0.00 0.00
3:53 am 03:53 Cloudy 60 15.6 56 13.3 86 86 Calm 29.99 1016 10 16 0.01 0.25
5:00 am 05:00 Cloudy with Light Rain 59 15 56 13.3 90 90 Calm 30.03 1017 10 16 0.00 0.00
5:53 am 05:53 Cloudy 59 15 56 13.3 90 90 Calm 30.01 1016 10 16 0.00 0.00
6:12 am 06:12 Cloudy 59 15 56 13.3 90 90 Calm 30.03 1017 10 16 0.00 0.00
6:53 am 06:53 Cloudy with Light Rain 59 15 55 12.8 87 87 Calm 30.03 1017 9 14 0.01 0.25
7:49 am 07:49 Cloudy 59 15 55 13 88 88 Calm 30.07 1018 10 16 0.01 0.25
7:53 am 07:53 Cloudy with Light Rain 59 15 56 13.3 90 90 Calm 30.05 1018 10 16 0.01 0.25
8:16 am 08:16 Cloudy with Heavy Rain 58 14.4 55 12.8 90 90 Calm 30.07 1018 2 3 0.08 2.03
8:27 am 08:27 Cloudy with Light Rain 57 13.9 55 12.8 93 93 Calm 30.08 1019 3 5 0.10 2.54
8:37 am 08:37 Cloudy with Light Rain 58 14.4 55 12.8 90 90 Calm 30.08 1019 6 10 0.10 2.54
8:53 am 08:53 Cloudy with Light Rain 58 14.4 55 12.8 90 90 Calm 30.06 1018 7 11 0.10 2.54
9:39 am 09:39 Cloudy 58 14.4 56 13.3 93 93 Calm 30.10 1019 8 13 0.04 1.02
9:53 am 09:53 Cloudy 58 14.4 55 12.8 90 90 Calm 30.07 1018 8 13 0.04 1.02
10:46 am 10:46 Cloudy 59 15 55 12.8 87 87 Calm 30.10 1019 10 16 0.00 0.00
10:53 am 10:53 Cloudy 59 15 55 12.8 87 87 Calm 30.08 1019 10 16 0.00 0.00
11:05 am 11:05 Cloudy 59 15 55 12.8 87 87 Calm 30.10 1019 10 16 0.00 0.00
11:42 am 11:42 Cloudy 61 16.1 56 13.3 84 84 Calm 30.08 1019 10 16 0.00 0.00
11:53 am 11:53 Cloudy 61 16.1 56 13.3 84 84 Calm 30.06 1018 10 16 0.00 0.00
12:02 pm 12:02 Cloudy 62 16.7 57 13.9 84 84 Calm 30.08 1019 10 16 0.00 0.00
12:34 pm 12:34 Cloudy 63 17.2 57 13.9 81 81 Calm 30.08 1019 10 16 0.00 0.00
12:53 pm 12:53 Cloudy 63 17.2 57 13.9 81 81 Calm 30.05 1018 10 16 0.00 0.00
1:53 pm 13:53 Cloudy 64 17.8 58 14.4 81 81 Calm 30.03 1017 10 16 0.00 0.00
2:53 pm 14:53 Cloudy 65 18.3 59 15 81 81 S 5 7 30.03 1017 10 16 0.00 0.00
3:53 pm 15:53 Mostly Sunny 66 18.9 59 15 78 78 S 5 7 30.03 1017 10 16 0.00 0.00
4:53 pm 16:53 Mostly Cloudy 66 18.9 59 15 78 78 Calm 30.04 1017 10 16 0.00 0.00
5:32 pm 17:32 Cloudy with Light Rain 64 17.8 61 16.1 90 90 Calm 30.02 1017 3 4 0.06 1.52
5:40 pm 17:40 Cloudy with Light Rain 64 17.8 61 16.1 90 90 Calm 30.04 1017 5 8 0.06 1.52
5:53 pm 17:53 Cloudy with Rain 63 17.2 61 16.1 93 93 S 5 7 30.02 1017 3 5 0.09 2.29
6:53 pm 18:53 Mostly Sunny 61 16.1 58 14.4 90 90 S 3 6 30.04 1017 10 16 0.03 0.76
7:53 pm 19:53 Clear 61 16.1 59 15 93 93 Calm 30.06 1018 10 16 0.01 0.25
8:53 pm 20:53 Partly Cloudy 61 16.1 58 14.4 90 90 Calm 30.07 1018 10 16 0.00 0.00
9:53 pm 21:53 Clear 60 15.6 57 13.9 90 90 Calm 30.06 1018 10 16 0.00 0.00
10:22 pm 22:22 Mostly Cloudy 60 15.6 57 13.9 90 90 Calm 30.07 1018 10 16 0.00 0.00
10:53 pm 22:53 Partly Cloudy 59 15 55 12.8 87 87 Calm 30.07 1018 10 16 0.00 0.00
11:02 pm 23:02 Mostly Clear 58 14.4 54 12.2 87 87 Calm 30.09 1019 10 16 0.00 0.00
11:53 pm 23:53 Clear 57 13.9 54 12.2 90 90 Calm 30.06 1018 10 16 0.00 0.00

Powered by AerisWeather